Location: Acton
(51.4942°N, 0.2232°W)
Time: 17:04:16
(UTC+00:00)

CREW DRAGON DEMO-1 DEB - Pass Details

Date: 18 September 2020
Orbit: 361 x 362 km, 51.6° (Epoch: 31 October)

Event Time Altitude Azimuth Distance (km) Brightness Sun altitude
Rises 18:41:15 0° 261° (W) 2,192 8.3 -6.0°
Reaches altitude 10° 18:43:17 10° 261° (W) 1,347 7.0 -6.4°
Maximum altitude 18:46:17 88° 170° (S) 368 2.7 -6.8°
Drops below altitude 10° 18:49:19 10° 83° (E) 1,353 5.0 -7.3°
Enters shadow 18:49:28 - 83° (E) 1,418 5.1 -7.3°
